Location: Castelbiague
(43.0361°N, 0.9246°E)
Time: 16:17:46
(UTC+00:00)

Cosmos 1626 - Pass Details

Date: 25 October 2021
Orbit: 487 x 492 km, 82.5° (Epoch: 30 November)

Event Time Altitude Azimuth Distance (km) Brightness Sun altitude
Exits shadow 03:20:32 13° 91° (E) 1,507 5.2 -33.6°
Maximum altitude 03:20:50 13° 86° (E) 1,502 5.3 -33.5°
Drops below altitude 10° 03:22:37 10° 57° (ENE) 1,694 5.6 -33.2°
Sets 03:25:40 0° 29° (NNE) 2,583 6.3 -32.7°
